FW6530 Weather Reports


Display with metric or nautical units.
time (UTC)temp
F
wind
direction
speed
MPH
gust
MPH
rain 1hr
in
rain 24hr
in
rain mn
in
humidity
%
barometer
mb
20260508175525 71 234 4.0 14.0 0.00 0.00 0.00 19 1020.6
20260508175023 70 281 3.0 15.0 0.00 0.00 0.00 20 1020.5
20260508174540 70 288 5.0 16.0 0.00 0.00 0.00 19 1020.6
20260508174028 70 219 6.0 16.0 0.00 0.00 0.00 19 1020.7
20260508173524 70 241 6.0 14.0 0.00 0.00 0.00 20 1020.8
20260508173046 70 242 5.0 14.0 0.00 0.00 0.00 20 1020.9
20260508172524 70 281 5.0 17.0 0.00 0.00 0.00 21 1020.9
20260508172028 70 255 5.0 17.0 0.00 0.00 0.00 20 1020.9
20260508171538 70 228 6.0 14.0 0.00 0.00 0.00 21 1020.8
20260508171023 69 294 6.0 16.0 0.00 0.00 0.00 21 1020.9
20260508170525 69 239 7.0 18.0 0.00 0.00 0.00 21 1020.9
20260508170043 69 193 8.0 18.0 0.00 0.00 0.00 21 1020.9
20260508165525 69 257 6.0 15.0 0.00 0.00 0.00 21 1020.9
20260508165028 69 236 3.0 13.0 0.00 0.00 0.00 22 1020.9
20260508164540 69 209 5.0 13.0 0.00 0.00 0.00 21 1021.0
20260508164024 69 237 6.0 13.0 0.00 0.00 0.00 21 1020.9
20260508163523 69 196 3.0 13.0 0.00 0.00 0.00 22 1021.0
20260508163040 69 179 6.0 13.0 0.00 0.00 0.00 21 1020.9
20260508162523 68 188 5.0 12.0 0.00 0.00 0.00 21 1021.1
20260508162027 68 278 4.0 11.0 0.00 0.00 0.00 22 1021.0
20260508161538 68 184 4.0 10.0 0.00 0.00 0.00 22 1021.1
20260508161023 67 196 4.0 12.0 0.00 0.00 0.00 22 1021.0
20260508160522 67 188 6.0 12.0 0.00 0.00 0.00 21 1021.0
20260508160040 67 194 4.0 10.0 0.00 0.00 0.00 21 1021.0
20260508155523 67 243 4.0 10.0 0.00 0.00 0.00 22 1021.1
20260508155024 67 240 3.0 8.0 0.00 0.00 0.00 22 1021.0
20260508154546 67 241 3.0 15.0 0.00 0.00 0.00 23 1021.0
20260508154022 66 192 6.0 15.0 0.00 0.00 0.00 22 1020.9
20260508153526 66 200 3.0 10.0 0.00 0.00 0.00 23 1020.9
20260508153043 66 183 4.0 10.0 0.00 0.00 0.00 23 1020.9
20260508152523 66 240 2.0 8.0 0.00 0.00 0.00 23 1020.9
20260508152026 65 194 2.0 8.0 0.00 0.00 0.00 24 1021.1
20260508151539 65 236 3.0 8.0 0.00 0.00 0.00 24 1021.1
20260508151024 64 210 3.0 8.0 0.00 0.00 0.00 25 1021.1
20260508150525 64 236 2.0 8.0 0.00 0.00 0.00 25 1021.1
20260508150038 63 217 2.0 9.0 0.00 0.00 0.00 25 1021.2
20260508145523 63 190 3.0 9.0 0.00 0.00 0.00 25 1021.1
20260508145024 63 0 2.0 6.0 0.00 0.00 0.00 26 1021.1
20260508144537 62 219 1.0 8.0 0.00 0.00 0.00 27 1021.1
20260508144022 61 194 2.0 8.0 0.00 0.00 0.00 27 1021.1
20260508143521 61 0 1.0 7.0 0.00 0.00 0.00 27 1021.1
20260508143037 60 297 2.0 9.0 0.00 0.00 0.00 27 1021.0
20260508142524 59 223 3.0 9.0 0.00 0.00 0.00 26 1021.1
20260508142024 59 269 2.0 9.0 0.00 0.00 0.00 27 1021.1
20260508141546 58 217 3.0 9.0 0.00 0.00 0.00 27 1021.3
20260508141023 58 287 2.0 7.0 0.00 0.00 0.00 27 1021.2
20260508140523 57 256 2.0 7.0 0.00 0.00 0.00 29 1021.1
20260508140053 57 285 2.0 8.0 0.00 0.00 0.00 31 1021.1
20260508135525 56 259 2.0 8.0 0.00 0.00 0.00 32 1021.1
20260508135024 56 268 2.0 7.0 0.00 0.00 0.00 32 1021.1
20260508134538 55 289 2.0 7.0 0.00 0.00 0.00 33 1021.1
20260508134023 55 229 2.0 6.0 0.00 0.00 0.00 34 1021.1
20260508133523 54 278 2.0 6.0 0.00 0.00 0.00 35 1021.0
20260508133041 53 237 2.0 6.0 0.00 0.00 0.00 36 1020.9
20260508132523 52 0 0.0 4.0 0.00 0.00 0.00 38 1020.8
20260508132020 51 0 0.0 0.0 0.00 0.00 0.00 39 1020.7
20260508131538 50 0 0.0 0.0 0.00 0.00 0.00 40 1020.7
20260508131023 48 0 0.0 2.0 0.00 0.00 0.00 43 1020.6
20260508130520 46 0 0.0 2.0 0.00 0.00 0.00 47 1020.5
20260508130035 45 144 0.0 2.0 0.00 0.00 0.00 48 1020.4
20260508125523 43 0 0.0 3.0 0.00 0.00 0.00 49 1020.3
20260508125022 42 144 1.0 3.0 0.00 0.00 0.00 51 1020.2
20260508124539 41 144 1.0 3.0 0.00 0.00 0.00 52 1020.1
20260508124023 40 142 0.0 2.0 0.00 0.00 0.00 52 1020.2
20260508123523 40 142 1.0 2.0 0.00 0.00 0.00 51 1020.2
20260508123041 41 142 1.0 2.0 0.00 0.00 0.00 51 1020.1
20260508122523 41 142 1.0 2.0 0.00 0.00 0.00 51 1020.1
20260508122023 41 142 0.0 3.0 0.00 0.00 0.00 50 1020.1
20260508121541 41 142 1.0 3.0 0.00 0.00 0.00 50 1020.1
20260508121022 41 138 1.0 2.0 0.00 0.00 0.00 49 1020.1
20260508120522 42 0 0.0 2.0 0.00 0.00 0.00 49 1020.0
20260508120039 42 0 0.0 2.0 0.00 0.00 0.00 48 1020.0
20260508115523 42 136 0.0 4.0 0.00 0.00 0.00 48 1019.9
20260508115022 42 294 2.0 6.0 0.00 0.00 0.00 49 1019.8
20260508114535 40 294 2.0 6.0 0.00 0.00 0.00 51 1019.8
20260508114023 38 302 1.0 3.0 0.00 0.00 0.00 54 1019.8
20260508113524 38 0 0.0 3.0 0.00 0.00 0.00 55 1019.7
20260508113041 38 307 1.0 3.0 0.00 0.00 0.00 54 1019.6
20260508112523 38 307 1.0 3.0 0.00 0.00 0.00 54 1019.6
20260508112023 38 307 1.0 5.0 0.00 0.00 0.00 53 1019.5
20260508111552 38 307 3.0 5.0 0.00 0.00 0.00 52 1019.5
20260508111023 38 308 2.0 4.0 0.00 0.00 0.00 54 1019.4
20260508110531 37 307 1.0 4.0 0.00 0.00 0.00 53 1019.6
20260508110055 37 307 3.0 4.0 0.00 0.00 0.00 54 1019.5
20260508105523 36 307 2.0 4.0 0.00 0.00 0.00 55 1019.7
20260508105023 35 307 1.0 2.0 0.00 0.00 0.00 56 1019.5
20260508104538 35 307 1.0 2.0 0.00 0.00 0.00 56 1019.5
20260508104023 35 307 0.0 2.0 0.00 0.00 0.00 56 1019.4
20260508103525 34 307 0.0 2.0 0.00 0.00 0.00 56 1019.3
20260508103048 35 0 0.0 0.0 0.00 0.00 0.00 55 1019.3
20260508102525 35 0 0.0 0.0 0.00 0.00 0.00 55 1019.2
20260508102025 35 0 0.0 0.0 0.00 0.00 0.00 54 1019.3
20260508101541 36 0 0.0 0.0 0.00 0.00 0.00 51 1019.2
20260508101025 36 0 0.0 0.0 0.00 0.00 0.00 49 1019.2
20260508100524 37 0 0.0 1.0 0.00 0.00 0.00 48 1019.1
20260508100035 37 0 0.0 1.0 0.00 0.00 0.00 48 1019.2
20260508095524 37 308 0.0 3.0 0.00 0.00 0.00 47 1019.2
20260508095026 38 0 0.0 4.0 0.00 0.00 0.00 46 1019.3
20260508094558 38 308 1.0 4.0 0.00 0.00 0.00 45 1019.3
20260508094025 38 308 2.0 4.0 0.00 0.00 0.00 44 1019.3
20260508093525 38 308 2.0 5.0 0.00 0.00 0.00 44 1019.3
20260508093040 38 308 3.0 5.0 0.00 0.00 0.00 44 1019.3
20260508092526 38 308 3.0 5.0 0.00 0.00 0.00 44 1019.4
20260508092023 38 308 3.0 5.0 0.00 0.00 0.00 44 1019.4
20260508091536 38 307 3.0 5.0 0.00 0.00 0.00 44 1019.4
20260508091026 38 306 2.0 5.0 0.00 0.00 0.00 44 1019.5
20260508090523 38 305 3.0 5.0 0.00 0.00 0.00 44 1019.5
20260508090037 38 304 2.0 5.0 0.00 0.00 0.00 45 1019.5
20260508085524 38 304 2.0 5.0 0.00 0.00 0.00 45 1019.6
20260508085025 38 304 3.0 5.0 0.00 0.00 0.00 45 1019.6
20260508084540 38 303 2.0 4.0 0.00 0.00 0.00 45 1019.6
20260508084023 38 302 2.0 4.0 0.00 0.00 0.00 45 1019.6
20260508083524 38 302 2.0 5.0 0.00 0.00 0.00 44 1019.7
20260508083039 38 302 3.0 5.0 0.00 0.00 0.00 44 1019.6
20260508082523 38 302 3.0 5.0 0.00 0.00 0.00 45 1019.7
20260508082028 38 304 3.0 5.0 0.00 0.00 0.00 45 1019.7
20260508081542 38 304 3.0 5.0 0.00 0.00 0.00 45 1019.8
20260508081024 38 304 3.0 5.0 0.00 0.00 0.00 45 1019.8
20260508080526 38 304 3.0 4.0 0.00 0.00 0.00 44 1019.9
20260508080043 39 304 3.0 4.0 0.00 0.00 0.00 44 1019.9
20260508075523 39 304 2.0 4.0 0.00 0.00 0.00 44 1019.9
20260508075024 39 304 2.0 4.0 0.00 0.00 0.00 44 1019.9
20260508074538 39 303 2.0 5.0 0.00 0.00 0.00 44 1020.0
20260508074025 39 303 3.0 5.0 0.00 0.00 0.00 43 1020.0
20260508073525 39 303 3.0 5.0 0.00 0.00 0.00 43 1020.0
20260508073036 39 302 2.0 5.0 0.00 0.00 0.00 43 1020.0
20260508072523 39 302 1.0 3.0 0.00 0.00 0.00 42 1020.1
20260508072026 40 0 1.0 4.0 0.00 0.00 0.00 42 1020.1
20260508071535 40 302 2.0 4.0 0.00 0.00 0.00 41 1020.1
20260508071026 40 302 3.0 4.0 0.00 0.00 0.00 40 1020.0
20260508070525 40 302 2.0 4.0 0.00 0.00 0.00 40 1020.1
20260508070044 40 303 1.0 4.0 0.00 0.00 0.00 39 1020.0
20260508065527 40 302 2.0 4.0 0.00 0.00 0.00 39 1020.1
20260508065027 40 301 2.0 4.0 0.00 0.00 0.00 39 1020.0
20260508064551 41 302 2.0 4.0 0.00 0.00 0.00 40 1020.0
20260508064024 41 302 3.0 4.0 0.00 0.00 0.00 38 1020.0
20260508063526 41 302 2.0 4.0 0.00 0.00 0.00 38 1020.0
20260508063037 42 302 1.0 4.0 0.00 0.00 0.00 38 1020.0
20260508062525 42 302 2.0 4.0 0.00 0.00 0.00 37 1019.9
20260508062025 43 302 2.0 5.0 0.00 0.00 0.00 36 1020.0
20260508061537 43 302 2.0 5.0 0.00 0.00 0.00 34 1020.0
20260508061029 43 302 3.0 5.0 0.00 0.00 0.00 34 1020.0
20260508060525 43 305 3.0 5.0 0.00 0.00 0.00 34 1019.9
20260508060041 43 306 3.0 5.0 0.00 0.00 0.00 34 1020.0
20260508055525 43 305 2.0 5.0 0.00 0.00 0.00 34 1020.0
20260508055027 43 306 3.0 5.0 0.00 0.00 0.00 35 1020.0
20260508054539 43 306 3.0 5.0 0.00 0.00 0.00 35 1020.0
20260508054026 43 18 3.0 4.0 0.00 0.00 0.00 35 1020.0
20260508053524 43 19 2.0 4.0 0.00 0.00 0.00 35 1020.1
20260508053039 44 20 2.0 4.0 0.00 0.00 0.00 34 1020.1
20260508052524 44 21 2.0 4.0 0.00 0.00 0.00 34 1020.0
20260508052025 44 22 1.0 4.0 0.00 0.00 0.00 33 1020.0
20260508051550 44 22 2.0 4.0 0.00 0.00 0.00 33 1020.1
20260508051024 45 22 2.0 5.0 0.00 0.00 0.00 31 1020.0
20260508050524 45 24 3.0 5.0 0.00 0.00 0.00 32 1020.0
20260508050035 45 25 3.0 4.0 0.00 0.00 0.00 31 1020.1
20260508045523 45 26 3.0 4.0 0.00 0.00 0.00 31 1020.0
20260508045025 46 65 2.0 4.0 0.00 0.00 0.00 29 1020.0
20260508044540 46 69 2.0 3.0 0.00 0.00 0.00 29 1020.1
20260508044041 46 69 2.0 3.0 0.00 0.00 0.00 29 1020.1
20260508043525 47 69 2.0 4.0 0.00 0.00 0.00 28 1020.2
20260508043042 48 69 2.0 4.0 0.00 0.00 0.00 27 1020.2
20260508042522 49 71 1.0 3.0 0.00 0.00 0.00 25 1020.3
20260508042024 50 71 1.0 3.0 0.00 0.00 0.00 24 1020.3
20260508041540 51 71 0.0 2.0 0.00 0.00 0.00 24 1020.3
20260508041024 51 0 0.0 2.0 0.00 0.00 0.00 21 1020.2
20260508040524 52 0 0.0 2.0 0.00 0.00 0.00 21 1020.2
20260508040040 52 71 1.0 3.0 0.00 0.00 0.00 20 1020.2
20260508035525 53 0 0.0 3.0 0.00 0.00 0.00 20 1020.1
20260508035023 54 0 1.0 3.0 0.00 0.00 0.00 18 1020.2
20260508034544 55 70 1.0 3.0 0.00 0.00 0.00 18 1020.1
20260508034028 56 82 0.0 3.0 0.00 0.00 0.00 17 1020.0
20260508033524 57 0 0.0 6.0 0.00 0.00 0.00 15 1020.0
20260508033039 58 0 1.0 7.0 0.00 0.00 0.00 14 1019.9
20260508032524 58 0 1.0 8.0 0.00 0.00 0.00 14 1019.7
20260508032023 58 100 1.0 10.0 0.00 0.00 0.00 14 1019.6
20260508031539 59 106 3.0 10.0 0.00 0.00 0.00 14 1019.5
20260508031025 59 122 4.0 10.0 0.00 0.00 0.00 13 1019.4
20260508030524 59 100 3.0 11.0 0.00 0.00 0.00 13 1019.3
20260508030039 59 101 4.0 12.0 0.00 0.00 0.00 13 1019.2
20260508025523 59 128 5.0 12.0 0.00 0.00 0.00 13 1019.1
20260508025024 59 94 5.0 12.0 0.00 0.00 0.00 13 1019.0
20260508024545 58 71 4.0 9.0 0.00 0.00 0.00 14 1019.0
20260508024026 58 103 4.0 8.0 0.00 0.00 0.00 13 1019.0
20260508023526 58 94 2.0 7.0 0.00 0.00 0.00 14 1019.0
20260508023035 59 81 1.0 7.0 0.00 0.00 0.00 14 1018.8
20260508022525 59 46 2.0 4.0 0.00 0.00 0.00 14 1018.8
20260508022025 60 46 2.0 4.0 0.00 0.00 0.00 13 1018.9
20260508021545 61 49 1.0 6.0 0.00 0.00 0.00 14 1018.8
20260508021024 61 49 2.0 6.0 0.00 0.00 0.00 13 1018.7
20260508020525 62 42 2.0 8.0 0.00 0.00 0.00 13 1018.6
20260508020038 63 67 3.0 9.0 0.00 0.00 0.00 12 1018.6
20260508015525 63 67 2.0 9.0 0.00 0.00 0.00 12 1018.6
20260508015025 64 118 2.0 8.0 0.00 0.00 0.00 12 1018.6
20260508014549 65 78 3.0 10.0 0.00 0.00 0.00 12 1018.6
20260508014024 65 72 4.0 10.0 0.00 0.00 0.00 12 1018.5
20260508013524 66 78 6.0 10.0 0.00 0.00 0.00 11 1018.4
20260508013043 66 116 3.0 12.0 0.00 0.00 0.00 12 1018.4
20260508012523 67 111 6.0 13.0 0.00 0.00 0.00 11 1018.4
20260508012025 67 92 6.0 13.0 0.00 0.00 0.00 11 1018.4
20260508011541 67 125 6.0 11.0 0.00 0.00 0.00 11 1018.3
20260508011024 67 127 4.0 14.0 0.00 0.00 0.00 11 1018.3
20260508010524 68 107 6.0 14.0 0.00 0.00 0.00 11 1018.4
20260508010038 68 135 5.0 11.0 0.00 0.00 0.00 12 1018.4
20260508005527 68 128 6.0 12.0 0.00 0.00 0.00 12 1018.4
20260508005025 69 74 6.0 12.0 0.00 0.00 0.00 12 1018.4
20260508004538 69 59 3.0 12.0 0.00 0.00 0.00 12 1018.4
20260508004022 68 158 5.0 12.0 0.00 0.00 0.00 11 1018.3
20260508003527 69 144 4.0 12.0 0.00 0.00 0.00 11 1018.4
20260508003054 69 99 7.0 12.0 0.00 0.00 0.00 12 1018.4
20260508002527 69 96 5.0 14.0 0.00 0.00 0.00 11 1018.5
20260508002027 69 126 6.0 16.0 0.00 0.00 0.00 11 1018.6
20260508001536 70 111 7.0 16.0 0.00 0.00 0.00 11 1018.6
20260508001024 70 192 3.0 10.0 0.00 0.00 0.00 11 1018.5
20260508000525 70 186 2.0 13.0 0.00 0.00 0.00 12 1018.5
20260508000041 70 129 6.0 13.0 0.00 0.00 0.00 12 1018.6
20260507235525 70 71 3.0 13.0 0.00 0.00 0.00 13 1018.5
20260507235024 69 114 3.0 11.0 0.00 0.00 0.00 12 1018.6
20260507234539 69 115 4.0 13.0 0.00 0.00 0.00 13 1018.7
20260507234027 69 119 7.0 13.0 0.00 0.00 0.00 13 1018.7
20260507233524 69 117 7.0 15.0 0.00 0.00 0.00 14 1018.8
20260507233038 69 84 7.0 15.0 0.00 0.00 0.00 14 1018.8
20260507232523 69 97 6.0 16.0 0.00 0.00 0.00 15 1018.8
20260507232023 70 107 6.0 16.0 0.00 0.00 0.00 16 1018.7
20260507231540 70 115 3.0 13.0 0.00 0.00 0.00 16 1018.7
20260507231028 69 188 5.0 12.0 0.00 0.00 0.00 16 1018.8
20260507230523 69 186 6.0 15.0 0.00 0.00 0.00 16 1018.9
20260507230038 69 167 8.0 18.0 0.00 0.00 0.00 17 1018.8
20260507225528 69 111 6.0 18.0 0.00 0.00 0.00 18 1018.8
20260507225024 70 182 7.0 15.0 0.00 0.00 0.00 18 1018.7
20260507224557 70 209 7.0 15.0 0.00 0.00 0.00 19 1018.7
20260507224022 70 184 7.0 14.0 0.00 0.00 0.00 19 1018.8
20260507223524 70 173 4.0 12.0 0.00 0.00 0.00 18 1018.8
20260507223041 70 135 7.0 12.0 0.00 0.00 0.00 19 1018.8
20260507222523 69 226 4.0 13.0 0.00 0.00 0.00 18 1018.9
20260507222024 69 350 4.0 13.0 0.00 0.00 0.00 18 1019.0
20260507221537 69 62 4.0 11.0 0.00 0.00 0.00 18 1019.1
20260507221027 70 360 3.0 14.0 0.00 0.00 0.00 18 1019.2
20260507220527 70 194 7.0 14.0 0.00 0.00 0.00 18 1019.2
20260507220037 69 183 3.0 13.0 0.00 0.00 0.00 17 1019.3
20260507215528 69 80 6.0 13.0 0.00 0.00 0.00 16 1019.3
20260507215023 69 107 5.0 14.0 0.00 0.00 0.00 15 1019.4
20260507214536 69 94 5.0 14.0 0.00 0.00 0.00 16 1019.5
20260507214025 69 157 8.0 14.0 0.00 0.00 0.00 15 1019.6
20260507213523 69 180 7.0 12.0 0.00 0.00 0.00 15 1019.6
20260507213041 69 136 4.0 12.0 0.00 0.00 0.00 14 1019.7
20260507212524 69 225 1.0 12.0 0.00 0.00 0.00 14 1019.7
20260507212020 69 242 4.0 14.0 0.00 0.00 0.00 13 1020.0
20260507211550 69 143 7.0 17.0 0.00 0.00 0.00 12 1019.8
20260507211024 69 196 7.0 17.0 0.00 0.00 0.00 13 1020.0
20260507210522 69 177 4.0 15.0 0.00 0.00 0.00 12 1020.0
20260507210042 69 157 8.0 15.0 0.00 0.00 0.00 11 1020.1
20260507205524 69 208 7.0 15.0 0.00 0.00 0.00 11 1020.2
20260507205028 69 173 7.0 13.0 0.00 0.00 0.00 11 1020.2
20260507204543 69 180 5.0 13.0 0.00 0.00 0.00 10 1020.2
20260507204024 69 251 4.0 13.0 0.00 0.00 0.00 11 1020.3
20260507203524 69 194 3.0 16.0 0.00 0.00 0.00 10 1020.4
20260507203036 69 187 6.0 16.0 0.00 0.00 0.00 10 1020.6
20260507202522 69 193 4.0 14.0 0.00 0.00 0.00 10 1020.5
20260507202024 69 251 5.0 14.0 0.00 0.00 0.00 10 1020.7
20260507201539 69 177 4.0 12.0 0.00 0.00 0.00 12 1020.7
20260507201025 68 240 4.0 9.0 0.00 0.00 0.00 9 1020.7
20260507200524 67 173 3.0 15.0 0.00 0.00 0.00 11 1020.7
20260507200038 67 253 5.0 18.0 0.00 0.00 0.00 10 1020.7
20260507195522 67 178 7.0 18.0 0.00 0.00 0.00 10 1020.8
20260507195024 67 177 8.0 17.0 0.00 0.00 0.00 12 1020.9
20260507194541 67 259 4.0 18.0 0.00 0.00 0.00 10 1020.9
20260507194023 67 229 7.0 18.0 0.00 0.00 0.00 9 1020.8
20260507193524 67 147 5.0 14.0 0.00 0.00 0.00 11 1020.9
20260507193036 67 251 4.0 18.0 0.00 0.00 0.00 11 1021.0
20260507192524 66 239 7.0 18.0 0.00 0.00 0.00 13 1021.1
20260507192024 66 204 5.0 18.0 0.00 0.00 0.00 13 1021.1
20260507191853 66 206 8.0 18.0 0.00 0.00 0.00 12 1021.1
20260507191020 66 182 7.0 15.0 0.00 0.00 0.00 12 1021.2
20260507190524 66 180 4.0 14.0 0.00 0.00 0.00 15 1021.3
20260507190036 66 172 6.0 14.0 0.00 0.00 0.00 14 1021.3
20260507185523 66 256 4.0 13.0 0.00 0.00 0.00 16 1021.5
20260507185023 65 244 4.0 16.0 0.00 0.00 0.00 16 1021.5
20260507184538 65 198 8.0 16.0 0.00 0.00 0.00 15 1021.4
20260507184021 64 196 5.0 14.0 0.00 0.00 0.00 16 1021.6
20260507183521 64 271 5.0 12.0 0.00 0.00 0.00 17 1021.6
20260507183041 64 192 6.0 12.0 0.00 0.00 0.00 18 1021.6
20260507182524 63 178 6.0 12.0 0.00 0.00 0.00 15 1021.6
20260507182024 63 178 5.0 18.0 0.00 0.00 0.00 15 1021.8
20260507181540 63 211 8.0 18.0 0.00 0.00 0.00 17 1021.8
20260507181024 63 196 6.0 15.0 0.00 0.00 0.00 21 1021.8
20260507180521 62 193 5.0 15.0 0.00 0.00 0.00 21 1022.0
20260507180043 61 236 5.0 15.0 0.00 0.00 0.00 24 1022.0